Location: Newark
(40.5782°N, 9.2582°E)
Time: 15:54:43
(UTC+00:00)

Hubble Space Telescope - Visible Passes

Search period start: 15 September 2019 00:00
Search period end: 25 September 2019 00:00
Orbit: 536 x 540 km, 28.5° (Epoch: 14 September)

Date Brightness Start Highest point End Pass type
(mag) Time Alt. Az. Time Alt. Az. Time Alt. Az.
15 Sep 3.0 03:49:44 11° SSW 03:51:34 13° S 03:53:37 10° SE visible
16 Sep 2.9 03:39:49 13° SSW 03:40:53 14° S 03:43:08 10° SE visible
17 Sep 2.8 03:29:54 15° S 03:30:12 15° S 03:32:34 10° SE visible
18 Sep 2.9 03:20:01 15° S 03:20:01 15° S 03:21:56 10° SE visible
19 Sep 3.1 03:10:09 13° SSE 03:10:09 13° SSE 03:11:14 10° SE visible
20 Sep 3.4 03:00:20 10° SSE 03:00:20 10° SSE 03:00:29 10° SSE visible
